Location: East Grimstead
(51.0333°N, 1.6667°W)
Time: 15:29:53
(UTC+00:00)

Daily predictions for brighter satellites

Satellite Brightness Start Highest point End
(mag) Time Altitude Azimuth Time Altitude Azimuth Time Altitude Azimuth
Cosmos 1408 Rocket 3.6 16:30:06 10° N 16:34:29 89° E 16:38:53 10° S
ADEOS 3.7 16:30:45 10° SSE 16:35:59 88° WSW 16:41:15 10° NNW
Cosmos 2082 Rocket 3.4 16:33:27 10° SSE 16:37:45 23° ESE 16:42:04 10° NE
USA 267 4.0 16:33:11 10° ENE 16:39:16 39° SE 16:45:18 10° SSW
YAOGAN 6 4.1 16:36:13 10° S 16:39:42 42° W 16:43:14 10° NNW
SMAP 3.5 16:38:10 10° SE 16:42:29 39° ENE 16:46:50 10° N
Cosmos 1743 Rocket 3.5 16:40:18 10° N 16:44:38 64° ENE 16:48:55 10° SSE
Cosmos 2333 Rocket 4.1 16:43:07 10° N 16:45:40 13° NNE 16:48:13 10° NE
Meteor 1-25 Rocket 4.2 16:40:37 10° N 16:46:10 62° ENE 16:51:43 10° SSE
Cosmos 2278 4.1 16:42:15 10° NNW 16:47:41 43° NE 16:53:05 10° ESE
Cosmos 1763 Rocket 3.6 16:43:14 10° S 16:48:13 60° ESE 16:53:16 10° NNE
Cosmos 2026 Rocket 4.2 16:43:01 10° N 16:48:56 48° ENE 16:54:47 10° SSE
ARGOS 4.3 16:45:32 10° ESE 16:49:29 21° NE 16:53:26 10° N
Cosmos 1602 4.0 16:45:52 10° N 16:49:36 45° ENE 16:53:19 10° SSE
SL-16 R/B 4.4 16:49:50 10° NW 16:51:47 12° NNW 16:53:43 10° N
Cosmos 44 Rocket 3.9 16:47:39 10° NNW 16:52:17 37° NE 16:56:47 10° ESE
SJ 16-02 4.3 16:49:46 10° NW 16:52:57 20° W 16:56:07 10° SW
NOAA 11 4.4 16:48:56 10° S 16:54:22 77° WSW 16:59:50 10° NNW
Cosmos 1833 Rocket 2.8 16:49:33 10° S 16:55:03 59° ESE 17:00:36 10° NE
USA 229 DEB 4.4 16:47:53 10° NW 16:55:06 68° SW 17:02:48 10° SSE
USA 229 4.4 16:47:58 10° NW 16:55:11 68° SW 17:02:54 10° SSE
SeaSat 1 3.4 16:50:46 10° NNE 16:55:28 45° NW 17:00:10 10° WSW
Cosmos 1666 Rocket 4.5 16:51:55 10° N 16:55:45 27° ENE 16:59:32 10° SE
Cosmos 841 Rocket 4.2 16:52:06 10° SSE 16:56:42 34° ESE 17:01:18 10° NE
CZ-2C R/B 2.9 16:52:36 10° SSE 16:57:28 88° ENE 17:02:15 10° NNW
Okean O Rocket 2.9 16:56:14 10° ESE 16:59:23 19° ENE 17:02:31 10° NNE
USA 306 3.1 16:55:28 10° WNW 16:59:40 57° N 17:03:35 11° E
Cosmos 1937 Rocket 3.5 16:55:21 10° NNW 17:00:44 84° ENE 17:06:03 10° SSE
Cosmos 1809 Rocket 4.4 16:55:02 10° N 17:01:06 63° ENE 17:07:07 10° SSE
Cosmos 2219 Rocket 4.1 16:59:56 10° N 17:02:21 13° NNE 17:04:44 10° NE
H-2A R/B 2.5 16:58:11 10° SE 17:02:46 35° ENE 17:07:18 10° N
ISS -2.8 16:59:43 10° W 17:03:01 49° SSW 17:06:19 10° SE
Cosmos 1939 Rocket 2.9 16:59:49 10° SSE 17:03:52 62° ENE 17:07:53 10° N
COSMOS 2406 3.4 16:58:39 10° S 17:04:14 54° ESE 17:09:49 10° NE
ATLAS 2AS CENTAUR R/B 3.9 16:57:36 10° WNW 17:04:26 33° N 17:10:36 11° NE
Cosmos 1606 4.0 17:01:48 10° SSW 17:05:23 41° WNW 17:09:03 10° N
Cosmos 372 Rocket 4.0 17:00:18 10° NNW 17:05:31 63° ENE 17:10:44 10° SE
Cosmos 1125 Rocket 4.5 17:02:17 10° N 17:06:38 25° NE 17:10:58 10° ESE
CZ-2C R/B 3.9 17:03:22 10° NE 17:07:04 19° E 17:10:43 10° SE
Cosmos 1500 3.3 17:05:52 10° N 17:09:31 48° ENE 17:13:07 10° SSE
Cosmos 1500 Rocket 4.0 17:07:56 10° NNW 17:12:21 66° W 17:16:42 10° S
USA 234 3.3 17:08:12 10° ESE 17:14:46 87° SSW 17:21:21 10° WNW
Sich 1 2.9 17:12:50 10° N 17:17:08 69° ENE 17:21:26 10° SSE
Cosmos 1782 3.1 17:13:25 10° SSE 17:17:15 47° E 17:21:05 10° NNE
Cosmos 2221 3.7 17:13:23 10° SSW 17:17:29 44° WNW 17:21:39 10° N
SL-08 R/B 3.5 17:14:04 10° NNE 17:18:46 72° WNW 17:23:23 10° SSW
CZ-2D R/B 3.5 17:15:39 10° SE 17:19:16 42° ENE 17:22:54 10° N
USA 307 3.1 17:15:07 10° WNW 17:19:20 58° N 17:22:25 17° E
CZ-4B R/B 3.5 17:16:49 10° SE 17:21:48 40° ENE 17:26:45 10° N
ATLAS 5 CENTAUR R/B 2.9 17:14:04 10° NW 17:23:55 51° NNE 17:26:27 18° E
Cosmos 1805 Rocket 3.6 17:20:08 10° NNW 17:24:29 81° W 17:28:49 10° S
NOAA 6 4.0 17:19:39 10° SSE 17:24:47 89° E 17:29:58 10° NNW
SL-24 R/B - RUBIN 2 4.1 17:22:43 10° NW 17:27:15 63° SW 17:31:31 10° SSE
PAYLOAD B 4.2 17:22:26 10° SSE 17:27:57 62° ENE 17:33:29 10° N
ERBS 3.5 17:26:43 10° WNW 17:29:33 28° N 17:30:53 21° NE
deb Chang Zheng 4 4.0 17:27:51 10° SE 17:31:50 38° ENE 17:35:50 10° N
Cosmos 2360 Rocket 3.3 17:30:46 10° NNW 17:35:24 25° NE 17:37:21 21° ENE
Lacrosse 5 rocket 1.1 17:32:16 10° WNW 17:36:08 77° NNE 17:39:14 17° ESE
Cosmos 540 Rocket 3.4 17:31:09 10° SSW 17:36:15 86° ESE 17:41:13 11° NNE
ATLAS CENTAUR R/B 3.6 17:35:20 10° WNW 17:38:22 18° NNW 17:41:01 12° NNE
Cosmos 1666 2.6 17:34:56 10° N 17:38:38 57° ENE 17:42:16 10° SSE
USA 308 3.0 17:37:45 10° WNW 17:41:59 62° N 17:44:08 27° E
Meteor 2-16 Rocket 4.3 17:41:57 10° N 17:48:05 75° ENE 17:54:13 10° SSE
Meteor 1-11 Rocket 4.1 17:45:50 10° N 17:51:07 40° ENE 17:56:29 10° SE
COSMOS 2428 4.3 17:48:08 10° N 17:51:45 17° NNE 17:52:06 17° NNE
Meteor 1-26 Rocket 4.4 17:45:45 10° S 17:51:46 89° WNW 17:57:52 10° NNE
COSMOS 2455 2.8 17:46:17 10° SSW 17:52:19 82° SE 17:56:39 20° NE
PSLV R/B 3.9 17:51:01 10° S 17:54:41 70° WSW 17:58:28 10° NNW
CZ-4 R/B 3.5 17:59:19 13° NNE 17:59:19 13° NNE 17:59:54 10° N
Cosmos 2322 Rocket 2.5 17:51:41 10° NNW 17:57:09 44° NE 18:00:16 24° ESE
Cosmos 1814 Rocket 3.9 17:52:30 10° S 17:57:39 65° ESE 18:00:57 22° NNE
Cosmos 921 Rocket 3.7 17:54:23 10° SSE 17:57:55 31° ESE 17:57:55 31° ESE
Cosmos 1570 Rocket 4.0 17:53:39 10° S 17:58:46 59° ESE 18:01:47 24° NE
Cosmos 2298 Rocket 4.0 17:55:21 10° NNW 18:00:39 63° ENE 18:05:57 10° SE
SL-08 RB Rocket 4.0 17:56:43 10° SE 18:01:06 45° ENE 18:05:29 10° N
COSMO-SKYMED 1 2.8 17:59:55 32° NE 18:01:29 47° E 18:05:40 10° S
Cosmos 1980 Rocket 3.1 17:56:16 10° NW 18:01:45 51° WSW 18:07:09 10° S
CZ-4C R/B 3.3 17:55:21 10° NW 18:02:26 70° SW 18:10:45 10° SSE
Cosmos 1356 Rocket 3.9 18:00:38 10° N 18:04:07 39° NE 18:04:07 39° NE
Cosmos 1633 Rocket 3.1 18:01:43 10° NNW 18:06:07 83° W 18:10:30 10° S
Cosmos 1812 2.7 18:03:30 10° SSW 18:07:21 83° W 18:09:54 21° N
USA 305 2.8 18:03:13 10° WNW 18:07:29 75° NNE 18:08:38 47° E
Cosmos 2142 Rocket 4.4 18:05:44 10° S 18:11:54 89° E 18:18:12 10° N
Feng Yun 1-1 Rocket 4.4 18:06:40 10° SE 18:12:26 57° ENE 18:18:08 10° N
YAOGAN 1 3.5 18:14:04 30° NNE 18:14:04 30° NNE 18:16:40 10° N
Cosmos 1818 3.7 18:08:34 10° NW 18:14:04 74° SW 18:19:29 10° SSE
CZ-4 R/B 4.3 18:10:05 10° SSE 18:14:13 76° ENE 18:18:22 10° N
Cosmos 1151 Rocket 3.0 18:10:04 10° SSW 18:14:24 82° WNW 18:17:49 17° N
Cosmos 2279 Rocket 3.9 18:08:55 10° S 18:15:09 89° E 18:21:24 10° N
SL-16 R/B 2.1 18:10:44 10° NNW 18:16:27 71° ENE 18:21:04 16° SE
Cosmos 2266 Rocket 4.0 18:10:25 10° N 18:16:48 67° ENE 18:23:12 10° SSE
Cosmos 2237 Rocket 4.2 18:15:49 10° N 18:17:59 13° NNE 18:17:59 13° NNE
Cosmos 2082 Rocket 2.4 18:15:38 10° SW 18:21:18 73° WNW 18:24:53 24° NNE
USA 267 3.2 18:19:25 33° ENE 18:22:42 86° NNW 18:29:16 10° WSW
Landsat 5 4.0 18:25:10 40° SSE 18:25:10 40° SSE 18:27:59 10° S
SKYMED 3 4.4 18:24:18 43° NNE 18:25:41 80° ESE 18:30:01 10° SSW
ARGOS 3.2 18:23:46 10° SSE 18:29:11 80° WSW 18:34:38 10° NNW
Cosmos 1933 Rocket 3.8 18:27:05 10° N 18:30:31 52° NNE 18:30:31 52° NNE
GEOS 3 Rocket 3.5 18:30:36 50° E 18:31:47 66° NE 18:36:56 10° NW
Cosmos 2333 Rocket 3.1 18:26:44 10° NNW 18:31:06 31° NNE 18:31:06 31° NNE
Meteor 2-15 4.3 18:26:06 10° S 18:32:12 78° E 18:38:18 10° NNE
Cosmos 44 Rocket 4.0 18:29:14 10° NW 18:34:01 51° WSW 18:38:14 12° SSE
Okean O Rocket 1.9 18:30:51 10° S 18:35:17 67° WSW 18:39:45 10° NNW
Cosmos 2208 Rocket 4.0 18:30:05 10° SSW 18:35:30 90° WNW 18:37:42 38° NNE
Cosmos 2150 Rocket 4.1 18:31:57 10° NNW 18:37:08 76° WSW 18:42:21 10° SSE
Cosmos 1470 Rocket 3.8 18:32:49 10° NNW 18:37:16 68° W 18:41:42 10° S
Cosmos 1328 Rocket 3.8 18:33:55 10° SSW 18:38:20 67° WNW 18:40:29 30° N
SL-16 R/B 4.4 18:37:32 10° N 18:38:38 11° N 18:38:38 11° N
ISS -0.7 18:37:41 10° WSW 18:39:14 13° SW 18:40:47 10° SSW
Cosmos 1833 Rocket 4.1 18:34:17 10° WSW 18:39:20 33° NW 18:43:03 16° N
USA 306 2.8 18:35:29 10° WNW 18:39:36 82° WSW 18:39:36 82° WSW
H-2A R/B 3.4 18:37:24 10° SSW 18:42:11 39° W 18:46:53 10° NNW
MOS 1-B Rocket 4.4 18:41:13 10° N 18:47:02 65° WNW 18:53:36 10° SSW
CZ-2C R/B 2.7 18:44:29 22° N 18:47:55 71° WNW 18:53:03 10° SSW
Cosmos 2219 Rocket 3.4 18:43:05 10° NNW 18:46:30 28° NNE 18:46:30 28° NNE
Cosmos 1125 Rocket 3.8 18:43:58 10° NNW 18:49:11 66° WSW 18:54:24 10° S
SKYMED 2 4.0 18:48:31 45° NNW 18:49:37 62° WNW 18:53:53 10° SSW
USA 32 4.1 18:45:00 10° S 18:49:26 61° SSE 18:49:26 61° SSE
ATLAS CENTAUR R/B 2.6 18:47:50 10° WSW 18:54:28 51° NNW 18:54:28 51° NNW
NOSS 3-4 (A) 4.0 18:48:11 10° NW 18:54:36 48° NNE 18:55:00 47° NE
NOSS 3-4 (C) 4.0 18:48:17 10° NW 18:54:42 47° NNE 18:55:05 47° NE
Spot 2 4.5 18:54:14 25° S 18:57:19 81° WSW 19:02:27 10° NNW
ATLAS 2AS CENTAUR R/B 3.6 18:50:35 10° NW 18:57:25 35° NNE 18:58:02 35° NNE
Meteor 1-27 Rocket 3.9 18:52:20 10° S 18:56:41 55° SSE 18:56:41 55° SSE
Cosmos 1900 4.3 18:53:04 10° SW 18:57:56 74° NW 18:57:56 74° NW
USA 307 3.6 18:55:07 10° WNW 18:58:27 52° W 18:58:27 52° W
Lacrosse 5 rocket 3.3 19:11:41 10° WNW 19:14:51 25° SW 19:14:51 25° SW
Cosmos 2237 4.3 19:10:57 10° NNW 19:16:39 70° WSW 19:17:01 68° SW
ATLAS CENTAUR R/B 4.1 19:16:00 10° NNW 19:17:07 14° NNW 19:17:07 14° NNW
Cosmos 2360 Rocket 2.4 19:14:26 10° NNW 19:19:09 63° NW 19:19:09 63° NW
COSMOS 2428 4.4 19:31:48 10° NNW 19:34:07 24° NNW 19:34:07 24° NNW
COSMOS 2455 4.2 19:33:35 10° W 19:38:55 31° NNW 19:39:49 30° NNW
Cosmos 2322 Rocket 3.3 19:35:54 10° NW 19:41:12 41° WSW 19:42:10 38° SW
SL-16 R/B 4.3 19:55:39 10° NW 20:00:01 23° WSW 20:03:05 15° SW
USA 267 3.9 20:06:46 48° NW 20:06:46 48° NW 20:11:50 10° W
Cosmos 2082 Rocket 4.2 20:02:15 10° W 20:06:25 20° NW 20:06:45 20° NNW
Cosmos 2333 Rocket 4.1 20:10:53 10° NW 20:13:07 24° NW 20:13:07 24° NW
ATLAS 2AS CENTAUR R/B 4.3 20:42:07 10° NW 20:45:28 29° NW 20:45:28 29° NW
